N8JE Weather Reports


Display with metric or nautical units.
time (UTC)temp
F
wind
direction
speed
MPH
gust
MPH
rain 1hr
in
rain 24hr
in
rain mn
in
humidity
%
barometer
mb
20260903020505 84 237 0.0 0.0 0.00 0.00 0.00 73 1014.1
20260903015504 84 250 1.0 3.0 0.00 0.00 0.00 72 1014.1
20260903015005 85 252 0.0 1.0 0.00 0.00 0.00 72 1014.0
20260903014505 85 251 0.0 2.0 0.00 0.00 0.00 72 1014.0
20260903014005 85 259 1.0 3.0 0.00 0.00 0.00 72 1013.9
20260903013505 85 246 0.0 3.0 0.00 0.00 0.00 72 1013.9
20260903013005 85 243 0.0 5.0 0.00 0.00 0.00 72 1013.9
20260903012504 85 234 0.0 2.0 0.00 0.00 0.00 71 1013.9
20260903012005 85 234 0.0 2.0 0.00 0.00 0.00 71 1013.9
20260903011504 85 264 1.0 2.0 0.00 0.00 0.00 71 1013.8
20260903011005 85 254 1.0 2.0 0.00 0.00 0.00 71 1013.8
20260903010504 85 235 0.0 2.0 0.00 0.00 0.00 71 1013.7
20260903010005 85 249 0.0 5.0 0.00 0.00 0.00 71 1013.7
20260903005504 85 219 0.0 3.0 0.00 0.00 0.00 70 1013.7
20260903005005 85 278 0.0 3.0 0.00 0.00 0.00 70 1013.6
20260903004504 86 236 0.0 2.0 0.00 0.00 0.00 70 1013.6
20260903004004 86 228 0.0 1.0 0.00 0.00 0.00 70 1013.6
20260903003004 86 245 0.0 0.0 0.00 0.00 0.00 69 1013.4
20260903002504 86 238 0.0 0.0 0.00 0.00 0.00 69 1013.4
20260903001504 87 223 0.0 5.0 0.00 0.00 0.00 68 1013.4
20260903001005 87 249 1.0 3.0 0.00 0.00 0.00 67 1013.4
20260903000504 87 239 0.0 2.0 0.00 0.00 0.00 67 1013.5
20260903000004 88 247 1.0 3.0 0.00 0.00 0.00 67 1013.5
20260902235004 88 226 1.0 5.0 0.00 0.00 0.00 66 1013.4
20260902234504 88 264 1.0 2.0 0.00 0.00 0.00 65 1013.4
20260902233504 89 244 2.0 6.0 0.00 0.00 0.00 64 1013.3
20260902233004 89 267 1.0 5.0 0.00 0.00 0.00 64 1013.3
20260902232504 89 248 2.0 6.0 0.00 0.00 0.00 63 1013.3
20260902232004 90 251 1.0 5.0 0.00 0.00 0.00 63 1013.3
20260902231504 90 257 1.0 5.0 0.00 0.00 0.00 62 1013.3
20260902231004 90 248 1.0 6.0 0.00 0.00 0.00 61 1013.3
20260902230504 91 220 2.0 7.0 0.00 0.00 0.00 61 1013.3
20260902230005 91 230 1.0 5.0 0.00 0.00 0.00 61 1013.3
20260902225505 91 224 4.0 8.0 0.00 0.00 0.00 60 1013.3
20260902225005 92 260 2.0 7.0 0.00 0.00 0.00 59 1013.3
20260902224504 92 244 3.0 6.0 0.00 0.00 0.00 59 1013.3
20260902224005 92 316 1.0 5.0 0.00 0.00 0.00 59 1013.3
20260902223504 93 240 2.0 5.0 0.00 0.00 0.00 58 1013.4
20260902223004 93 235 2.0 6.0 0.00 0.00 0.00 58 1013.4
20260902222504 93 244 3.0 6.0 0.00 0.00 0.00 57 1013.4
20260902222004 94 246 0.0 2.0 0.00 0.00 0.00 57 1013.4
20260902221504 93 242 1.0 6.0 0.00 0.00 0.00 58 1013.4
20260902221005 93 225 2.0 6.0 0.00 0.00 0.00 58 1013.5
20260902220504 93 267 2.0 7.0 0.00 0.00 0.00 58 1013.5
20260902215504 94 242 2.0 6.0 0.00 0.00 0.00 57 1013.4
20260902215005 94 258 2.0 5.0 0.00 0.00 0.00 57 1013.5
20260902214504 93 244 3.0 6.0 0.00 0.00 0.00 58 1013.5
20260902214004 94 242 2.0 9.0 0.00 0.00 0.00 57 1013.5
20260902213504 94 255 5.0 13.0 0.00 0.00 0.00 56 1013.6
20260902213004 94 236 3.0 7.0 0.00 0.00 0.00 55 1013.6
20260902212504 94 251 3.0 9.0 0.00 0.00 0.00 55 1013.6
20260902212004 94 272 3.0 7.0 0.00 0.00 0.00 54 1013.6
20260902211505 94 269 3.0 9.0 0.00 0.00 0.00 55 1013.6
20260902211004 94 271 2.0 7.0 0.00 0.00 0.00 54 1013.6
20260902210505 94 246 2.0 6.0 0.00 0.00 0.00 54 1013.7
20260902210004 94 264 5.0 9.0 0.00 0.00 0.00 53 1013.7
20260902205503 94 257 4.0 9.0 0.00 0.00 0.00 53 1013.7
20260902205005 94 231 5.0 8.0 0.00 0.00 0.00 53 1013.7
20260902204504 94 219 2.0 8.0 0.00 0.00 0.00 52 1013.8
20260902203504 94 219 2.0 7.0 0.00 0.00 0.00 51 1013.9
20260902202504 94 238 5.0 9.0 0.00 0.00 0.00 52 1014.1
20260902202004 94 247 3.0 9.0 0.00 0.00 0.00 53 1014.1
20260902201004 94 265 2.0 7.0 0.00 0.00 0.00 54 1014.2
20260902200004 94 294 2.0 7.0 0.00 0.00 0.00 56 1014.3
20260902195504 93 270 3.0 8.0 0.00 0.00 0.00 52 1014.4
20260902195004 93 271 2.0 6.0 0.00 0.00 0.00 54 1014.5
20260902194504 94 305 4.0 8.0 0.00 0.00 0.00 53 1014.4
20260902194004 94 262 3.0 9.0 0.00 0.00 0.00 55 1014.5
20260902192504 93 279 2.0 10.0 0.00 0.00 0.00 55 1014.5
20260902192004 93 258 4.0 8.0 0.00 0.00 0.00 53 1014.6
20260902191004 93 243 2.0 8.0 0.00 0.00 0.00 55 1014.7
20260902190504 94 244 5.0 8.0 0.00 0.00 0.00 53 1014.7
20260902190004 94 240 1.0 7.0 0.00 0.00 0.00 55 1014.7
20260902185005 93 286 2.0 7.0 0.00 0.00 0.00 57 1014.8
20260902184504 94 298 2.0 7.0 0.00 0.00 0.00 55 1014.9
20260902184004 94 226 5.0 10.0 0.00 0.00 0.00 53 1014.9
20260902183503 94 233 3.0 6.0 0.00 0.00 0.00 53 1014.9
20260902183004 94 237 7.0 10.0 0.00 0.00 0.00 53 1015.0
20260902182504 93 311 2.0 9.0 0.00 0.00 0.00 58 1015.1
20260902182004 93 327 3.0 8.0 0.00 0.00 0.00 57 1015.0
20260902181504 93 264 3.0 6.0 0.00 0.00 0.00 56 1015.0
20260902181003 94 207 3.0 6.0 0.00 0.00 0.00 55 1015.1
20260902180504 93 259 4.0 9.0 0.00 0.00 0.00 57 1015.1
20260902180006 93 226 6.0 12.0 0.00 0.00 0.00 58 1015.1
20260902175504 93 358 2.0 9.0 0.00 0.00 0.00 59 1015.1
20260902175004 92 122 2.0 6.0 0.00 0.00 0.00 61 1015.2
20260902174504 93 353 3.0 6.0 0.00 0.00 0.00 57 1015.3
20260902174004 93 327 2.0 6.0 0.00 0.00 0.00 57 1015.4
20260902173504 92 258 3.0 9.0 0.00 0.00 0.00 57 1015.5
20260902173004 92 261 3.0 6.0 0.00 0.00 0.00 57 1015.6
20260902172504 92 339 5.0 10.0 0.00 0.00 0.00 58 1015.6
20260902172004 92 294 3.0 6.0 0.00 0.00 0.00 58 1015.6
20260902171504 92 305 2.0 6.0 0.00 0.00 0.00 59 1015.7
20260902171004 92 345 5.0 7.0 0.00 0.00 0.00 59 1015.7
20260902170504 92 332 2.0 6.0 0.00 0.00 0.00 58 1015.8
20260902170004 92 279 1.0 8.0 0.00 0.00 0.00 60 1015.7
20260902165504 92 269 3.0 9.0 0.00 0.00 0.00 58 1015.7
20260902165004 92 320 3.0 9.0 0.00 0.00 0.00 59 1015.8
20260902164504 92 242 1.0 5.0 0.00 0.00 0.00 62 1015.8
20260902163504 91 327 1.0 6.0 0.00 0.00 0.00 62 1015.9
20260902163005 92 265 1.0 6.0 0.00 0.00 0.00 62 1016.0
20260902162505 91 178 2.0 5.0 0.00 0.00 0.00 62 1015.9
20260902162005 91 313 2.0 6.0 0.00 0.00 0.00 63 1015.9
20260902161504 91 222 4.0 6.0 0.00 0.00 0.00 63 1015.8
20260902161005 90 251 2.0 6.0 0.00 0.00 0.00 64 1015.8
20260902160505 90 292 2.0 6.0 0.00 0.00 0.00 63 1015.9
20260902155505 89 265 1.0 6.0 0.00 0.00 0.00 64 1015.9
20260902155004 90 248 3.0 7.0 0.00 0.00 0.00 64 1015.9
20260902154004 89 242 1.0 8.0 0.00 0.00 0.00 65 1016.1
20260902153505 89 333 2.0 6.0 0.00 0.00 0.00 66 1016.2
20260902153005 89 221 3.0 6.0 0.00 0.00 0.00 66 1016.1
20260902152504 89 329 1.0 3.0 0.00 0.00 0.00 66 1016.1
20260902152005 89 312 1.0 5.0 0.00 0.00 0.00 66 1016.1
20260902151505 88 228 2.0 6.0 0.00 0.00 0.00 67 1016.1
20260902151005 87 260 3.0 7.0 0.00 0.00 0.00 68 1016.2
20260902150506 87 299 1.0 5.0 0.00 0.00 0.00 68 1016.1
20260902145505 86 259 2.0 7.0 0.00 0.00 0.00 70 1016.1
20260902145005 86 292 1.0 6.0 0.00 0.00 0.00 70 1016.2
20260902144505 86 328 1.0 3.0 0.00 0.00 0.00 70 1016.2
20260902144004 86 278 1.0 5.0 0.00 0.00 0.00 71 1016.2
20260902143505 86 8 2.0 5.0 0.00 0.00 0.00 71 1016.2
20260902143004 85 241 1.0 5.0 0.00 0.00 0.00 73 1016.1
20260902142505 85 246 1.0 5.0 0.00 0.00 0.00 73 1016.1
20260902141504 84 262 2.0 6.0 0.00 0.00 0.00 73 1016.1
20260902141005 84 299 0.0 6.0 0.00 0.00 0.00 74 1016.2
20260902140504 83 252 2.0 6.0 0.00 0.00 0.00 74 1016.1
20260902140004 83 213 1.0 6.0 0.00 0.00 0.00 75 1016.0
20260902135005 82 237 3.0 6.0 0.00 0.00 0.00 76 1016.0
20260902134504 82 289 1.0 5.0 0.00 0.00 0.00 77 1016.1
20260902134005 82 312 2.0 6.0 0.00 0.00 0.00 77 1016.1
20260902133505 81 260 1.0 6.0 0.00 0.00 0.00 78 1016.2
20260902133004 81 248 2.0 5.0 0.00 0.00 0.00 80 1016.2
20260902132505 81 257 2.0 6.0 0.00 0.00 0.00 79 1016.2
20260902132005 81 247 1.0 7.0 0.00 0.00 0.00 79 1016.2
20260902131504 80 260 2.0 6.0 0.00 0.00 0.00 80 1016.1
20260902130504 80 242 1.0 5.0 0.00 0.00 0.00 80 1016.0
20260902125504 80 266 1.0 3.0 0.00 0.00 0.00 81 1016.1
20260902125005 79 230 2.0 5.0 0.00 0.00 0.00 81 1016.1
20260902124504 79 228 1.0 6.0 0.00 0.00 0.00 81 1016.1
20260902124005 79 259 2.0 6.0 0.00 0.00 0.00 81 1016.0
20260902123504 79 242 1.0 2.0 0.00 0.00 0.00 83 1016.0
20260902123004 78 268 2.0 5.0 0.00 0.00 0.00 83 1016.0
20260902122505 78 243 2.0 6.0 0.00 0.00 0.00 83 1016.0
20260902122004 77 238 1.0 3.0 0.00 0.00 0.00 84 1016.0
20260902121504 77 230 1.0 3.0 0.00 0.00 0.00 85 1015.9
20260902120004 75 214 1.0 3.0 0.00 0.00 0.00 88 1015.9
20260902115004 74 267 0.0 0.0 0.00 0.00 0.00 91 1015.8
20260902113505 73 214 0.0 0.0 0.00 0.00 0.00 92 1015.7
20260902113005 73 214 0.0 0.0 0.00 0.00 0.00 92 1015.6
20260902112505 73 214 0.0 0.0 0.00 0.00 0.00 92 1015.6
20260902112005 73 215 0.0 0.0 0.00 0.00 0.00 92 1015.6
20260902111504 73 215 0.0 0.0 0.00 0.00 0.00 92 1015.6
20260902111004 73 215 0.0 0.0 0.00 0.00 0.00 92 1015.6
20260902110505 72 215 0.0 0.0 0.00 0.00 0.00 92 1015.5
20260902110007 73 215 0.0 0.0 0.00 0.00 0.00 92 1015.5
20260902105005 73 215 0.0 0.0 0.00 0.00 0.00 91 1015.4
20260902104004 73 215 0.0 0.0 0.00 0.00 0.00 91 1015.4
20260902103504 73 215 0.0 0.0 0.00 0.00 0.00 91 1015.3
20260902103004 73 215 0.0 0.0 0.00 0.00 0.00 91 1015.3
20260902102004 73 219 0.0 0.0 0.00 0.00 0.00 91 1015.3
20260902101504 73 219 0.0 0.0 0.00 0.00 0.00 91 1015.4
20260902101004 73 219 0.0 0.0 0.00 0.00 0.00 91 1015.3
20260902100505 73 219 0.0 0.0 0.00 0.00 0.00 91 1015.4
20260902100005 73 231 0.0 0.0 0.00 0.00 0.00 91 1015.4
20260902095505 73 270 0.0 0.0 0.00 0.00 0.00 91 1015.5
20260902095004 73 270 0.0 1.0 0.00 0.00 0.00 91 1015.5
20260902094504 73 270 0.0 0.0 0.00 0.00 0.00 90 1015.4
20260902094004 73 270 0.0 0.0 0.00 0.00 0.00 90 1015.4
20260902093504 74 270 0.0 0.0 0.00 0.00 0.00 89 1015.3
20260902093004 74 270 0.0 0.0 0.00 0.00 0.00 89 1015.3
20260902092504 74 270 0.0 0.0 0.00 0.00 0.00 89 1015.3
20260902092004 74 270 0.0 0.0 0.00 0.00 0.00 88 1015.2
20260902091504 74 270 0.0 0.0 0.00 0.00 0.00 88 1015.3
20260902090505 75 270 0.0 0.0 0.00 0.00 0.00 87 1015.3
20260902090004 75 270 0.0 0.0 0.00 0.00 0.00 87 1015.2
20260902085504 75 270 0.0 0.0 0.00 0.00 0.00 87 1015.2
20260902084004 76 270 0.0 0.0 0.00 0.00 0.00 86 1015.1
20260902083504 76 278 0.0 2.0 0.00 0.00 0.00 86 1015.0
20260902083004 76 231 0.0 0.0 0.00 0.00 0.00 86 1014.9
20260902082504 76 231 0.0 0.0 0.00 0.00 0.00 86 1014.9
20260902082004 76 223 0.0 1.0 0.00 0.00 0.00 86 1014.8
20260902081504 76 224 0.0 1.0 0.00 0.00 0.00 86 1014.8
20260902081004 76 243 0.0 0.0 0.00 0.00 0.00 86 1014.7
20260902080504 76 243 0.0 0.0 0.00 0.00 0.00 85 1014.7
20260902080004 76 215 0.0 1.0 0.00 0.00 0.00 86 1014.7
20260902075504 76 243 0.0 2.0 0.00 0.00 0.00 86 1014.7
20260902075005 76 237 0.0 1.0 0.00 0.00 0.00 86 1014.6
20260902074504 76 237 0.0 1.0 0.00 0.00 0.00 85 1014.6
20260902074003 76 237 0.0 0.0 0.00 0.00 0.00 86 1014.6
20260902073504 76 257 0.0 0.0 0.00 0.00 0.00 86 1014.7
20260902073004 76 229 0.0 0.0 0.00 0.00 0.00 85 1014.6
20260902072504 76 226 0.0 0.0 0.00 0.00 0.00 85 1014.6
20260902072004 76 226 0.0 1.0 0.00 0.00 0.00 85 1014.7
20260902071004 77 226 0.0 0.0 0.00 0.00 0.00 85 1014.7
20260902070504 77 226 0.0 0.0 0.00 0.00 0.00 85 1014.8
20260902070006 77 226 0.0 0.0 0.00 0.00 0.00 84 1014.7
20260902065504 77 243 0.0 0.0 0.00 0.00 0.00 84 1014.8
20260902065004 77 244 0.0 0.0 0.00 0.00 0.00 83 1014.8
20260902064503 78 244 0.0 0.0 0.00 0.00 0.00 83 1014.7
20260902064004 78 244 0.0 0.0 0.00 0.00 0.00 83 1014.8
20260902063504 78 244 0.0 0.0 0.00 0.00 0.00 82 1014.8
20260902063004 78 244 0.0 0.0 0.00 0.00 0.00 82 1014.8
20260902062504 78 244 0.0 0.0 0.00 0.00 0.00 81 1014.8
20260902061504 79 226 0.0 0.0 0.00 0.00 0.00 81 1014.8
20260902060504 79 231 0.0 1.0 0.00 0.00 0.00 81 1014.8
20260902055504 79 209 0.0 1.0 0.00 0.00 0.00 80 1014.7
20260902055004 79 278 0.0 3.0 0.00 0.00 0.00 80 1014.7
20260902054504 79 247 0.0 2.0 0.00 0.00 0.00 80 1014.6
20260902054004 79 265 1.0 5.0 0.00 0.00 0.00 80 1014.6
20260902053503 80 280 0.0 1.0 0.00 0.00 0.00 79 1014.5
20260902053004 80 250 1.0 2.0 0.00 0.00 0.00 80 1014.5
20260902052504 80 242 1.0 3.0 0.00 0.00 0.00 80 1014.4
20260902052004 80 241 1.0 3.0 0.00 0.00 0.00 80 1014.5
20260902051504 80 241 0.0 2.0 0.00 0.00 0.00 79 1014.4
20260902051003 80 260 0.0 1.0 0.00 0.00 0.00 79 1014.4
20260902050504 80 239 0.0 2.0 0.00 0.00 0.00 79 1014.5
20260902050006 80 248 1.0 6.0 0.00 0.00 0.00 78 1014.5
20260902045504 80 239 1.0 5.0 0.00 0.00 0.00 78 1014.5
20260902044504 80 244 1.0 3.0 0.00 0.00 0.00 79 1014.6
20260902044004 80 246 0.0 5.0 0.00 0.00 0.00 79 1014.6
20260902043504 80 238 0.0 3.0 0.00 0.00 0.00 80 1014.7
20260902043004 80 226 0.0 1.0 0.00 0.00 0.00 81 1014.7
20260902042003 80 240 0.0 0.0 0.00 0.00 0.00 81 1014.8
20260902041505 80 240 0.0 0.0 0.00 0.00 0.00 81 1014.7
20260902041005 80 229 0.0 0.0 0.00 0.00 0.00 80 1014.7
20260902040506 80 235 0.0 0.0 0.00 0.00 0.00 80 1014.8
20260902040005 80 240 0.0 0.0 0.00 0.00 0.00 80 1014.8
20260902035505 80 221 0.0 0.0 0.00 0.00 0.00 80 1014.8
20260902035005 80 244 0.0 0.0 0.00 0.00 0.00 79 1014.8
20260902034505 80 259 0.0 0.0 0.00 0.00 0.00 79 1014.8
20260902034005 80 259 0.0 0.0 0.00 0.00 0.00 79 1014.8
20260902033005 81 259 0.0 0.0 0.00 0.00 0.00 78 1014.8
20260902032504 81 250 0.0 1.0 0.00 0.00 0.00 78 1014.7
20260902032004 81 240 0.0 2.0 0.00 0.00 0.00 78 1014.7
20260902031004 81 245 0.0 1.0 0.00 0.00 0.00 78 1014.9
20260902030505 81 245 0.0 1.0 0.00 0.00 0.00 78 1014.9
20260902030006 81 240 0.0 1.0 0.00 0.00 0.00 79 1014.8
20260902025505 81 240 0.0 1.0 0.00 0.00 0.00 78 1014.9
20260902025005 81 240 0.0 1.0 0.00 0.00 0.00 78 1014.9
20260902024505 81 240 0.0 0.0 0.00 0.00 0.00 78 1014.9
20260902024004 81 240 0.0 1.0 0.00 0.00 0.00 78 1014.9
20260902023504 81 240 0.0 0.0 0.00 0.00 0.00 78 1014.8
20260902022505 82 240 0.0 1.0 0.00 0.00 0.00 77 1014.8
20260902021505 82 240 0.0 1.0 0.00 0.00 0.00 76 1014.7
20260902021005 82 240 0.0 1.0 0.00 0.00 0.00 76 1014.6